Year,Month,Day,Hour,Minute,Value (Times are PST for temperature in C)
2019,09,23,00,00,13.10
2019,09,23,00,01,13.10
2019,09,23,00,02,13.10
2019,09,23,00,03,13.10
2019,09,23,00,04,13.10
2019,09,23,00,05,13.10
2019,09,23,00,06,13.10
2019,09,23,00,07,13.10
2019,09,23,00,08,13.10
2019,09,23,00,09,13.10
2019,09,23,00,10,13.10
2019,09,23,00,11,13.10
2019,09,23,00,12,13.10
2019,09,23,00,13,13.10
2019,09,23,00,14,13.10
2019,09,23,00,15,13.10
2019,09,23,00,16,13.10
2019,09,23,00,17,13.10
2019,09,23,00,18,13.10
2019,09,23,00,19,13.10
2019,09,23,00,20,13.10
2019,09,23,00,21,13.10
2019,09,23,00,22,13.10
2019,09,23,00,23,13.20
2019,09,23,00,24,13.20
2019,09,23,00,25,13.20
2019,09,23,00,26,13.20
2019,09,23,00,27,13.20
2019,09,23,00,28,13.20
2019,09,23,00,29,13.20
2019,09,23,00,30,13.20
2019,09,23,00,31,13.20
2019,09,23,00,32,13.20
2019,09,23,00,33,13.20
2019,09,23,00,34,13.20
2019,09,23,00,35,13.30
2019,09,23,00,36,13.30
2019,09,23,00,37,13.30
2019,09,23,00,38,13.30
2019,09,23,00,39,13.30
2019,09,23,00,40,13.30
2019,09,23,00,41,13.30
2019,09,23,00,42,13.30
2019,09,23,00,43,13.30
2019,09,23,00,44,13.30
2019,09,23,00,45,13.30
2019,09,23,00,46,13.30
2019,09,23,00,47,13.30
2019,09,23,00,48,13.30
2019,09,23,00,49,13.30
2019,09,23,00,50,13.30
2019,09,23,00,51,13.40
2019,09,23,00,52,13.40
2019,09,23,00,53,13.40
2019,09,23,00,54,13.40
2019,09,23,00,55,13.40
2019,09,23,00,56,13.40
2019,09,23,00,57,13.40
2019,09,23,00,58,13.40
2019,09,23,00,59,13.40
2019,09,23,01,00,13.40
2019,09,23,01,01,13.40
2019,09,23,01,02,13.40
2019,09,23,01,03,13.40
2019,09,23,01,04,13.40
2019,09,23,01,05,13.40
2019,09,23,01,06,13.40
2019,09,23,01,07,13.40
2019,09,23,01,08,13.40
2019,09,23,01,09,13.40
2019,09,23,01,10,13.40
2019,09,23,01,11,13.40
2019,09,23,01,12,13.40
2019,09,23,01,13,13.40
2019,09,23,01,14,13.40
2019,09,23,01,15,13.40
2019,09,23,01,16,13.40
2019,09,23,01,17,13.30
2019,09,23,01,18,13.30
2019,09,23,01,19,13.30
2019,09,23,01,20,13.30
2019,09,23,01,21,13.30
2019,09,23,01,22,13.30
2019,09,23,01,23,13.30
2019,09,23,01,24,13.30
2019,09,23,01,25,13.30
2019,09,23,01,26,13.30
2019,09,23,01,27,13.30
2019,09,23,01,28,13.30
2019,09,23,01,29,13.30
2019,09,23,01,30,13.30
2019,09,23,01,31,13.30
2019,09,23,01,32,13.30
2019,09,23,01,33,13.30
2019,09,23,01,34,13.40
2019,09,23,01,35,13.40
2019,09,23,01,36,13.30
2019,09,23,01,37,13.40
2019,09,23,01,38,13.40
2019,09,23,01,39,13.40
2019,09,23,01,40,13.40
2019,09,23,01,41,13.40
2019,09,23,01,42,13.40
2019,09,23,01,43,13.40
2019,09,23,01,44,13.40
2019,09,23,01,45,13.40
2019,09,23,01,46,13.40
2019,09,23,01,47,13.40
2019,09,23,01,48,13.40
2019,09,23,01,49,13.40
2019,09,23,01,50,13.40
2019,09,23,01,51,13.50
2019,09,23,01,52,13.50
2019,09,23,01,53,13.60
2019,09,23,01,54,13.60
2019,09,23,01,55,13.60
2019,09,23,01,56,13.60
2019,09,23,01,57,13.60
2019,09,23,01,58,13.60
2019,09,23,01,59,13.60
2019,09,23,02,00,13.70
2019,09,23,02,01,13.70
2019,09,23,02,02,13.70
2019,09,23,02,03,13.70
2019,09,23,02,04,13.70
2019,09,23,02,05,13.70
2019,09,23,02,06,13.70
2019,09,23,02,07,13.70
2019,09,23,02,08,13.70
2019,09,23,02,09,13.80
2019,09,23,02,10,13.80
2019,09,23,02,11,13.80
2019,09,23,02,12,13.80
2019,09,23,02,13,13.80
2019,09,23,02,14,13.80
2019,09,23,02,15,13.80
2019,09,23,02,16,13.80
2019,09,23,02,17,13.80
2019,09,23,02,18,13.80
2019,09,23,02,19,13.80
2019,09,23,02,20,13.80
2019,09,23,02,21,13.80
2019,09,23,02,22,13.80
2019,09,23,02,23,13.80
2019,09,23,02,24,13.80
2019,09,23,02,25,13.80
2019,09,23,02,26,13.80
2019,09,23,02,27,13.80
2019,09,23,02,28,13.80
2019,09,23,02,29,13.80
2019,09,23,02,30,13.80
2019,09,23,02,31,13.80
2019,09,23,02,32,13.70
2019,09,23,02,33,13.70
2019,09,23,02,34,13.70
2019,09,23,02,35,13.70
2019,09,23,02,36,13.70
2019,09,23,02,37,13.70
2019,09,23,02,38,13.70
2019,09,23,02,39,13.70
2019,09,23,02,40,13.70
2019,09,23,02,41,13.70
2019,09,23,02,42,13.70
2019,09,23,02,43,13.80
2019,09,23,02,44,13.80
2019,09,23,02,45,13.80
2019,09,23,02,46,13.90
2019,09,23,02,47,13.90
2019,09,23,02,48,14.00
2019,09,23,02,49,14.10
2019,09,23,02,50,14.10
2019,09,23,02,51,14.20
2019,09,23,02,52,14.20
2019,09,23,02,53,14.30
2019,09,23,02,54,14.30
2019,09,23,02,55,14.30
2019,09,23,02,56,14.40
2019,09,23,02,57,14.40
2019,09,23,02,58,14.50
2019,09,23,02,59,14.60
2019,09,23,03,00,14.60
2019,09,23,03,01,14.70
2019,09,23,03,02,14.70
2019,09,23,03,03,14.80
2019,09,23,03,04,14.80
2019,09,23,03,05,14.90
2019,09,23,03,06,14.90
2019,09,23,03,07,14.90
2019,09,23,03,08,15.00
2019,09,23,03,09,15.10
2019,09,23,03,10,15.10
2019,09,23,03,11,15.10
2019,09,23,03,12,15.10
2019,09,23,03,13,15.10
2019,09,23,03,14,15.10
2019,09,23,03,15,15.10
2019,09,23,03,16,15.10
2019,09,23,03,17,15.10
2019,09,23,03,18,15.10
2019,09,23,03,19,15.10
2019,09,23,03,20,15.10
2019,09,23,03,21,15.10
2019,09,23,03,22,15.10
2019,09,23,03,23,15.10
2019,09,23,03,24,15.10
2019,09,23,03,25,15.10
2019,09,23,03,26,15.10
2019,09,23,03,27,15.10
2019,09,23,03,28,15.10
2019,09,23,03,29,15.10
2019,09,23,03,30,15.10
2019,09,23,03,31,15.10
2019,09,23,03,32,15.10
2019,09,23,03,33,15.10
2019,09,23,03,34,15.10
2019,09,23,03,35,15.10
2019,09,23,03,36,15.10
2019,09,23,03,37,15.10
2019,09,23,03,38,15.10
2019,09,23,03,39,15.10
2019,09,23,03,40,15.10
2019,09,23,03,41,15.10
2019,09,23,03,42,15.10
2019,09,23,03,43,15.10
2019,09,23,03,44,15.10
2019,09,23,03,45,15.10
2019,09,23,03,46,15.00
2019,09,23,03,47,15.00
2019,09,23,03,48,15.00
2019,09,23,03,49,14.90
2019,09,23,03,50,14.90
2019,09,23,03,51,14.90
2019,09,23,03,52,14.90
2019,09,23,03,53,14.90
2019,09,23,03,54,14.90
2019,09,23,03,55,14.90
2019,09,23,03,56,14.80
2019,09,23,03,57,14.80
2019,09,23,03,58,14.80
2019,09,23,03,59,14.80
2019,09,23,04,00,14.80
2019,09,23,04,01,14.80
2019,09,23,04,02,14.80
2019,09,23,04,03,14.80
2019,09,23,04,04,14.70
2019,09,23,04,05,14.70
2019,09,23,04,06,14.70
2019,09,23,04,07,14.70
2019,09,23,04,08,14.70
2019,09,23,04,09,14.70
2019,09,23,04,10,14.70
2019,09,23,04,11,14.70
2019,09,23,04,12,14.70
2019,09,23,04,13,14.70
2019,09,23,04,14,14.60
2019,09,23,04,15,14.60
2019,09,23,04,16,14.60
2019,09,23,04,17,14.60
2019,09,23,04,18,14.60
2019,09,23,04,19,14.60
2019,09,23,04,20,14.60
2019,09,23,04,21,14.60
2019,09,23,04,22,14.60
2019,09,23,04,23,14.50
2019,09,23,04,24,14.60
2019,09,23,04,25,14.50
2019,09,23,04,26,14.50
2019,09,23,04,27,14.50
2019,09,23,04,28,14.50
2019,09,23,04,29,14.50
2019,09,23,04,30,14.50
2019,09,23,04,31,14.40
2019,09,23,04,32,14.40
2019,09,23,04,33,14.40
2019,09,23,04,34,14.40
2019,09,23,04,35,14.40
2019,09,23,04,36,14.40
2019,09,23,04,37,14.40
2019,09,23,04,38,14.40
2019,09,23,04,39,14.40
2019,09,23,04,40,14.40
2019,09,23,04,41,14.40
2019,09,23,04,42,14.40
2019,09,23,04,43,14.30
2019,09,23,04,44,14.30
2019,09,23,04,45,14.30
2019,09,23,04,46,14.30
2019,09,23,04,47,14.30
2019,09,23,04,48,14.30
2019,09,23,04,49,14.30
2019,09,23,04,50,14.30
2019,09,23,04,51,14.30
2019,09,23,04,52,14.30
2019,09,23,04,53,14.30
2019,09,23,04,54,14.30
2019,09,23,04,55,14.30
2019,09,23,04,56,14.30
2019,09,23,04,57,14.30
2019,09,23,04,58,14.30
2019,09,23,04,59,14.30
2019,09,23,05,00,14.30
2019,09,23,05,01,14.30
2019,09,23,05,02,14.20
2019,09,23,05,03,14.20
2019,09,23,05,04,14.20
2019,09,23,05,05,14.20
2019,09,23,05,06,14.20
2019,09,23,05,07,14.20
2019,09,23,05,08,14.20
2019,09,23,05,09,14.10
2019,09,23,05,10,14.10
2019,09,23,05,11,14.10
2019,09,23,05,12,14.10
2019,09,23,05,13,14.10
2019,09,23,05,14,14.10
2019,09,23,05,15,14.10
2019,09,23,05,16,14.00
2019,09,23,05,17,14.00
2019,09,23,05,18,14.00
2019,09,23,05,19,14.00
2019,09,23,05,20,13.90
2019,09,23,05,21,14.00
2019,09,23,05,22,13.90
2019,09,23,05,23,14.00
2019,09,23,05,24,13.90
2019,09,23,05,25,13.90
2019,09,23,05,26,13.90
2019,09,23,05,27,13.90
2019,09,23,05,28,13.90
2019,09,23,05,29,13.90
2019,09,23,05,30,13.90
2019,09,23,05,31,13.90
2019,09,23,05,32,13.90
2019,09,23,05,33,13.90
2019,09,23,05,34,13.90
2019,09,23,05,35,13.90
2019,09,23,05,36,13.90
2019,09,23,05,37,13.90
2019,09,23,05,38,13.90
2019,09,23,05,39,13.90
2019,09,23,05,40,13.90
2019,09,23,05,41,13.90
2019,09,23,05,42,13.90
2019,09,23,05,43,13.90
2019,09,23,05,44,13.90
2019,09,23,05,45,13.90
2019,09,23,05,46,13.90
2019,09,23,05,47,13.90
2019,09,23,05,48,13.90
2019,09,23,05,49,13.90
2019,09,23,05,50,13.90
2019,09,23,05,51,13.90
2019,09,23,05,52,13.90
2019,09,23,05,53,13.90
2019,09,23,05,54,13.80
2019,09,23,05,55,13.80
2019,09,23,05,56,13.80
2019,09,23,05,57,13.80
2019,09,23,05,58,13.80
2019,09,23,05,59,13.80
2019,09,23,06,00,13.80
2019,09,23,06,01,13.80
2019,09,23,06,02,13.80
2019,09,23,06,03,13.80
2019,09,23,06,04,13.80
2019,09,23,06,05,13.80
2019,09,23,06,06,13.80
2019,09,23,06,07,13.80
2019,09,23,06,08,13.80
2019,09,23,06,09,13.80
2019,09,23,06,10,13.80
2019,09,23,06,11,13.80
2019,09,23,06,12,13.80
2019,09,23,06,13,13.80
2019,09,23,06,14,13.80
2019,09,23,06,15,13.80
2019,09,23,06,16,13.80
2019,09,23,06,17,13.80
2019,09,23,06,18,13.80
2019,09,23,06,19,13.80
2019,09,23,06,20,13.80
2019,09,23,06,21,13.80
2019,09,23,06,22,13.80
2019,09,23,06,23,13.80
2019,09,23,06,24,13.80
2019,09,23,06,25,13.80
2019,09,23,06,26,13.80
2019,09,23,06,27,13.80
2019,09,23,06,28,13.80
2019,09,23,06,29,13.80
2019,09,23,06,30,13.80
2019,09,23,06,31,13.80
2019,09,23,06,32,13.80
2019,09,23,06,33,13.70
2019,09,23,06,34,13.70
2019,09,23,06,35,13.70
2019,09,23,06,36,13.70
2019,09,23,06,37,13.70
2019,09,23,06,38,13.70
2019,09,23,06,39,13.70
2019,09,23,06,40,13.70
2019,09,23,06,41,13.60
2019,09,23,06,42,13.60
2019,09,23,06,43,13.60
2019,09,23,06,44,13.50
2019,09,23,06,45,13.40
2019,09,23,06,46,13.30
2019,09,23,06,47,13.30
2019,09,23,06,48,13.20
2019,09,23,06,49,13.20
2019,09,23,06,50,13.10
2019,09,23,06,51,13.00
2019,09,23,06,52,12.90
2019,09,23,06,53,12.90
2019,09,23,06,54,12.80
2019,09,23,06,55,12.80
2019,09,23,06,56,12.80
2019,09,23,06,57,12.80
2019,09,23,06,58,12.70
2019,09,23,06,59,12.70
2019,09,23,07,00,12.70
2019,09,23,07,01,12.70
2019,09,23,07,02,12.70
2019,09,23,07,03,12.70
2019,09,23,07,04,12.70
2019,09,23,07,05,12.70
2019,09,23,07,06,12.70
2019,09,23,07,07,12.70
2019,09,23,07,08,12.70
2019,09,23,07,09,12.70
2019,09,23,07,10,12.70
2019,09,23,07,11,12.70
2019,09,23,07,12,12.60
2019,09,23,07,13,12.60
2019,09,23,07,14,12.60
2019,09,23,07,15,12.60
2019,09,23,07,16,12.60
2019,09,23,07,17,12.60
2019,09,23,07,18,12.60
2019,09,23,07,19,12.60
2019,09,23,07,20,12.60
2019,09,23,07,21,12.60
2019,09,23,07,22,12.60
2019,09,23,07,23,12.60
2019,09,23,07,24,12.70
2019,09,23,07,25,12.70
2019,09,23,07,26,12.70
2019,09,23,07,27,12.80
2019,09,23,07,28,12.80
2019,09,23,07,29,12.80
2019,09,23,07,30,12.80
2019,09,23,07,31,12.80
2019,09,23,07,32,12.80
2019,09,23,07,33,12.80
2019,09,23,07,34,12.80
2019,09,23,07,35,12.90
2019,09,23,07,36,12.90
2019,09,23,07,37,12.90
2019,09,23,07,38,12.90
2019,09,23,07,39,12.90
2019,09,23,07,40,13.00
2019,09,23,07,41,13.00
2019,09,23,07,42,13.10
2019,09,23,07,43,13.10
2019,09,23,07,44,13.10
2019,09,23,07,45,13.10
2019,09,23,07,46,13.10
2019,09,23,07,47,13.20
2019,09,23,07,48,13.20
2019,09,23,07,49,13.20
2019,09,23,07,50,13.20
2019,09,23,07,51,13.20
2019,09,23,07,52,13.20
2019,09,23,07,53,13.20
2019,09,23,07,54,13.10
2019,09,23,07,55,13.10
2019,09,23,07,56,13.10
2019,09,23,07,57,13.10
2019,09,23,07,58,13.10
2019,09,23,07,59,13.00
2019,09,23,08,00,13.00
2019,09,23,08,01,12.90
2019,09,23,08,02,12.90
2019,09,23,08,03,12.90
2019,09,23,08,04,12.90
2019,09,23,08,05,12.90
2019,09,23,08,06,12.80
2019,09,23,08,07,12.80
2019,09,23,08,08,12.80
2019,09,23,08,09,12.80
2019,09,23,08,10,12.80
2019,09,23,08,11,12.70
2019,09,23,08,12,12.70
2019,09,23,08,13,12.70
2019,09,23,08,14,12.60
2019,09,23,08,15,12.60
2019,09,23,08,16,12.60
2019,09,23,08,17,12.50
2019,09,23,08,18,12.50
2019,09,23,08,19,12.40
2019,09,23,08,20,12.40
2019,09,23,08,21,12.40
2019,09,23,08,22,12.40
2019,09,23,08,23,12.30
2019,09,23,08,24,12.30
2019,09,23,08,25,12.30
2019,09,23,08,26,12.30
2019,09,23,08,27,12.20
2019,09,23,08,28,12.20
2019,09,23,08,29,12.20
2019,09,23,08,30,12.20
2019,09,23,08,31,12.10
2019,09,23,08,32,12.10
2019,09,23,08,33,12.10
2019,09,23,08,34,12.00
2019,09,23,08,35,12.00
2019,09,23,08,36,11.90
2019,09,23,08,37,11.90
2019,09,23,08,38,11.90
2019,09,23,08,39,11.90
2019,09,23,08,40,11.80
2019,09,23,08,41,11.80
2019,09,23,08,42,11.80
2019,09,23,08,43,11.80
2019,09,23,08,44,11.80
2019,09,23,08,45,11.70
2019,09,23,08,46,11.70
2019,09,23,08,47,11.70
2019,09,23,08,48,11.70
2019,09,23,08,49,11.70
2019,09,23,08,50,11.70
2019,09,23,08,51,11.70
2019,09,23,08,52,11.60
2019,09,23,08,53,11.60
2019,09,23,08,54,11.60
2019,09,23,08,55,11.60
2019,09,23,08,56,11.60
2019,09,23,08,57,11.60
2019,09,23,08,58,11.60
2019,09,23,08,59,11.60
2019,09,23,09,00,11.60
2019,09,23,09,01,11.50
2019,09,23,09,02,11.50
2019,09,23,09,03,11.50
2019,09,23,09,04,11.50
2019,09,23,09,05,11.50
2019,09,23,09,06,11.50
2019,09,23,09,07,11.50
2019,09,23,09,08,11.50
2019,09,23,09,09,11.40
2019,09,23,09,10,11.40
2019,09,23,09,11,11.40
2019,09,23,09,12,11.40
2019,09,23,09,13,11.40
2019,09,23,09,14,11.40
2019,09,23,09,15,11.40
2019,09,23,09,16,11.40
2019,09,23,09,17,11.40
2019,09,23,09,18,11.40
2019,09,23,09,19,11.40
2019,09,23,09,20,11.40
2019,09,23,09,21,11.40
2019,09,23,09,22,11.40
2019,09,23,09,23,11.40
2019,09,23,09,24,11.40
2019,09,23,09,25,11.40
2019,09,23,09,26,11.40
2019,09,23,09,27,11.40
2019,09,23,09,28,11.40
2019,09,23,09,29,11.50
2019,09,23,09,30,11.50
2019,09,23,09,31,11.50
2019,09,23,09,32,11.50
2019,09,23,09,33,11.60
2019,09,23,09,34,11.60
2019,09,23,09,35,11.60
2019,09,23,09,36,11.60
2019,09,23,09,37,11.60
2019,09,23,09,38,11.70
2019,09,23,09,39,11.70
2019,09,23,09,40,11.70
2019,09,23,09,41,11.70
2019,09,23,09,42,11.70
2019,09,23,09,43,11.70
2019,09,23,09,44,11.70
2019,09,23,09,45,11.70
2019,09,23,09,46,11.60
2019,09,23,09,47,11.60
2019,09,23,09,48,11.60
2019,09,23,09,49,11.60
2019,09,23,09,50,11.60
2019,09,23,09,51,11.60
2019,09,23,09,52,11.60
2019,09,23,09,53,11.60
2019,09,23,09,54,11.60
2019,09,23,09,55,11.60
2019,09,23,09,56,11.60
2019,09,23,09,57,11.60
2019,09,23,09,58,11.60
2019,09,23,09,59,11.60
2019,09,23,10,00,11.60
2019,09,23,10,01,11.60
2019,09,23,10,02,11.60
2019,09,23,10,03,11.70
2019,09,23,10,04,11.70
2019,09,23,10,05,11.70
2019,09,23,10,06,11.70
2019,09,23,10,07,11.70
2019,09,23,10,08,11.70
2019,09,23,10,09,11.70
2019,09,23,10,10,11.70
2019,09,23,10,11,11.70
2019,09,23,10,12,11.70
2019,09,23,10,13,11.70
2019,09,23,10,14,11.70
2019,09,23,10,15,11.70
2019,09,23,10,16,11.70
2019,09,23,10,17,11.70
2019,09,23,10,18,11.70
2019,09,23,10,19,11.70
2019,09,23,10,20,11.70
2019,09,23,10,21,11.60
2019,09,23,10,22,11.60
2019,09,23,10,23,11.60
2019,09,23,10,24,11.60
2019,09,23,10,25,11.60
2019,09,23,10,26,11.50
2019,09,23,10,27,11.50
2019,09,23,10,28,11.40
2019,09,23,10,29,11.50
2019,09,23,10,30,11.50
2019,09,23,10,31,11.40
2019,09,23,10,32,11.40
2019,09,23,10,33,11.40
2019,09,23,10,34,11.40
2019,09,23,10,35,11.40
2019,09,23,10,36,11.40
2019,09,23,10,37,11.40
2019,09,23,10,38,11.40
2019,09,23,10,39,11.40
2019,09,23,10,40,11.40
2019,09,23,10,41,11.40
2019,09,23,10,42,11.40
2019,09,23,10,43,11.30
2019,09,23,10,44,11.30
2019,09,23,10,45,11.30
2019,09,23,10,46,11.30
2019,09,23,10,47,11.30
2019,09,23,10,48,11.30
2019,09,23,10,49,11.30
2019,09,23,10,50,11.40
2019,09,23,10,51,11.40
2019,09,23,10,52,11.40
2019,09,23,10,53,11.30
2019,09,23,10,54,11.30
2019,09,23,10,55,11.30
2019,09,23,10,56,11.30
2019,09,23,10,57,11.30
2019,09,23,10,58,11.30
2019,09,23,10,59,11.30
2019,09,23,11,00,11.30
2019,09,23,11,01,11.30
2019,09,23,11,02,11.30
2019,09,23,11,03,11.40
2019,09,23,11,04,11.40
2019,09,23,11,05,11.40
2019,09,23,11,06,11.40
2019,09,23,11,07,11.40
2019,09,23,11,08,11.40
2019,09,23,11,09,11.40
2019,09,23,11,10,11.40
2019,09,23,11,11,11.40
2019,09,23,11,12,11.40
2019,09,23,11,13,11.50
2019,09,23,11,14,11.50
2019,09,23,11,15,11.50
2019,09,23,11,16,11.50
2019,09,23,11,17,11.50
2019,09,23,11,18,11.60
2019,09,23,11,19,11.60
2019,09,23,11,20,11.60
2019,09,23,11,21,11.60
2019,09,23,11,22,11.60
2019,09,23,11,23,11.60
2019,09,23,11,24,11.60
2019,09,23,11,25,11.60
2019,09,23,11,26,11.60
2019,09,23,11,27,11.60
2019,09,23,11,28,11.60
2019,09,23,11,29,11.60
2019,09,23,11,30,11.60
2019,09,23,11,31,11.60
2019,09,23,11,32,11.60
2019,09,23,11,33,11.60
2019,09,23,11,34,11.60
2019,09,23,11,35,11.60
2019,09,23,11,36,11.60
2019,09,23,11,37,11.60
2019,09,23,11,38,11.60
2019,09,23,11,39,11.60
2019,09,23,11,40,11.60
2019,09,23,11,41,11.60
2019,09,23,11,42,11.60
2019,09,23,11,43,11.60
2019,09,23,11,44,11.70
2019,09,23,11,45,11.70
2019,09,23,11,46,11.70
2019,09,23,11,47,11.70
2019,09,23,11,48,11.70
2019,09,23,11,49,11.70
2019,09,23,11,50,11.70
2019,09,23,11,51,11.70
2019,09,23,11,52,11.70
2019,09,23,11,53,11.80
2019,09,23,11,54,11.80
2019,09,23,11,55,11.80
2019,09,23,11,56,11.80
2019,09,23,11,57,11.80
2019,09,23,11,58,11.80
2019,09,23,11,59,11.80
2019,09,23,12,00,11.80
2019,09,23,12,01,11.80
2019,09,23,12,02,11.80
2019,09,23,12,03,11.90
2019,09,23,12,04,11.90
2019,09,23,12,05,11.90
2019,09,23,12,06,11.90
2019,09,23,12,07,11.90
2019,09,23,12,08,11.90
2019,09,23,12,09,11.90
2019,09,23,12,10,11.90
2019,09,23,12,11,11.90
2019,09,23,12,12,11.90
2019,09,23,12,13,11.90
2019,09,23,12,14,11.90
2019,09,23,12,15,11.90
2019,09,23,12,16,11.90
2019,09,23,12,17,11.90
2019,09,23,12,18,12.00
2019,09,23,12,19,12.00
2019,09,23,12,20,12.00
2019,09,23,12,21,12.10
2019,09,23,12,22,12.10
2019,09,23,12,23,12.10
2019,09,23,12,24,12.20
2019,09,23,12,25,12.20
2019,09,23,12,26,12.20
2019,09,23,12,27,12.20
2019,09,23,12,28,12.30
2019,09,23,12,29,12.30
2019,09,23,12,30,12.30
2019,09,23,12,31,12.30
2019,09,23,12,32,12.30
2019,09,23,12,33,12.30
2019,09,23,12,34,12.30
2019,09,23,12,35,12.30
2019,09,23,12,36,12.30
2019,09,23,12,37,12.30
2019,09,23,12,38,12.30
2019,09,23,12,39,12.40
2019,09,23,12,40,12.40
2019,09,23,12,41,12.40
2019,09,23,12,42,12.40
2019,09,23,12,43,12.50
2019,09,23,12,44,12.50
2019,09,23,12,45,12.60
2019,09,23,12,46,12.60
2019,09,23,12,47,12.60
2019,09,23,12,48,12.60
2019,09,23,12,49,12.70
2019,09,23,12,50,12.70
2019,09,23,12,51,12.70
2019,09,23,12,52,12.80
2019,09,23,12,53,12.80
2019,09,23,12,54,12.80
2019,09,23,12,55,12.80
2019,09,23,12,56,12.80
2019,09,23,12,57,12.90
2019,09,23,12,58,12.90
2019,09,23,12,59,12.90
2019,09,23,13,00,12.90
2019,09,23,13,01,12.90
2019,09,23,13,02,13.00
2019,09,23,13,03,13.00
2019,09,23,13,04,13.00
2019,09,23,13,05,13.10
2019,09,23,13,06,13.10
2019,09,23,13,07,13.10
2019,09,23,13,08,13.10
2019,09,23,13,09,13.10
2019,09,23,13,10,13.10
2019,09,23,13,11,13.10
2019,09,23,13,12,13.10
2019,09,23,13,13,13.10
2019,09,23,13,14,13.10
2019,09,23,13,15,13.10
2019,09,23,13,16,13.20
2019,09,23,13,17,13.20
2019,09,23,13,18,13.20
2019,09,23,13,19,13.20
2019,09,23,13,20,13.20
2019,09,23,13,21,13.20
2019,09,23,13,22,13.20
2019,09,23,13,23,13.20
2019,09,23,13,24,13.20
2019,09,23,13,25,13.20
2019,09,23,13,26,13.20
2019,09,23,13,27,13.30
2019,09,23,13,28,13.30
2019,09,23,13,29,13.30
2019,09,23,13,30,13.30
2019,09,23,13,31,13.30
2019,09,23,13,32,13.30
2019,09,23,13,33,13.30
2019,09,23,13,34,13.30
2019,09,23,13,35,13.30
2019,09,23,13,36,13.30
2019,09,23,13,37,13.40
2019,09,23,13,38,13.40
2019,09,23,13,39,13.40
2019,09,23,13,40,13.40
2019,09,23,13,41,13.40
2019,09,23,13,42,13.40
2019,09,23,13,43,13.40
2019,09,23,13,44,13.40
2019,09,23,13,45,13.40
2019,09,23,13,46,13.50
2019,09,23,13,47,13.50
2019,09,23,13,48,13.50
2019,09,23,13,49,13.50
2019,09,23,13,50,13.50
2019,09,23,13,51,13.50
2019,09,23,13,52,13.50
2019,09,23,13,53,13.50
2019,09,23,13,54,13.50
2019,09,23,13,55,13.60
2019,09,23,13,56,13.60
2019,09,23,13,57,13.60
2019,09,23,13,58,13.60
2019,09,23,13,59,13.60
2019,09,23,14,00,13.60
2019,09,23,14,01,13.60
2019,09,23,14,02,13.60
2019,09,23,14,03,13.60
2019,09,23,14,04,13.60
2019,09,23,14,05,13.60
2019,09,23,14,06,13.60
2019,09,23,14,07,13.60
2019,09,23,14,08,13.60
2019,09,23,14,09,13.70
2019,09,23,14,10,13.70
2019,09,23,14,11,13.70
2019,09,23,14,12,13.70
2019,09,23,14,13,13.70
2019,09,23,14,14,13.70
2019,09,23,14,15,13.70
2019,09,23,14,16,13.80
2019,09,23,14,17,13.80
2019,09,23,14,18,13.80
2019,09,23,14,19,13.80
2019,09,23,14,20,13.80
2019,09,23,14,21,13.80
2019,09,23,14,22,13.90
2019,09,23,14,23,13.90
2019,09,23,14,24,13.90
2019,09,23,14,25,14.00
2019,09,23,14,26,14.00
2019,09,23,14,27,14.10
2019,09,23,14,28,14.10
2019,09,23,14,29,14.10
2019,09,23,14,30,14.20
2019,09,23,14,31,14.20
2019,09,23,14,32,14.20
2019,09,23,14,33,14.20
2019,09,23,14,34,14.20
2019,09,23,14,35,14.30
2019,09,23,14,36,14.30
2019,09,23,14,37,14.30
2019,09,23,14,38,14.40
2019,09,23,14,39,14.40
2019,09,23,14,40,14.40
2019,09,23,14,41,14.50
2019,09,23,14,42,14.50
2019,09,23,14,43,14.60
2019,09,23,14,44,14.60
2019,09,23,14,45,14.60
2019,09,23,14,46,14.70
2019,09,23,14,47,14.70
2019,09,23,14,48,14.80
2019,09,23,14,49,14.80
2019,09,23,14,50,14.80
2019,09,23,14,51,14.80
2019,09,23,14,52,14.80
2019,09,23,14,53,14.80
2019,09,23,14,54,14.80
2019,09,23,14,55,14.80
2019,09,23,14,56,14.80
2019,09,23,14,57,14.80
2019,09,23,14,58,14.80
2019,09,23,14,59,14.80
2019,09,23,15,00,14.80
2019,09,23,15,01,14.80
2019,09,23,15,02,14.80
2019,09,23,15,03,14.80
2019,09,23,15,04,14.80
2019,09,23,15,05,14.90
2019,09,23,15,06,14.90
2019,09,23,15,07,14.90
2019,09,23,15,08,15.00
2019,09,23,15,09,15.00
2019,09,23,15,10,15.00
2019,09,23,15,11,15.10
2019,09,23,15,12,15.10
2019,09,23,15,13,15.10
2019,09,23,15,14,15.10
2019,09,23,15,15,15.10
2019,09,23,15,16,15.10
2019,09,23,15,17,15.10
2019,09,23,15,18,15.20
2019,09,23,15,19,15.20
2019,09,23,15,20,15.20
2019,09,23,15,21,15.20
2019,09,23,15,22,15.30
2019,09,23,15,23,15.30
2019,09,23,15,24,15.30
2019,09,23,15,25,15.30
2019,09,23,15,26,15.30
2019,09,23,15,27,15.40
2019,09,23,15,28,15.40
2019,09,23,15,29,15.50
2019,09,23,15,30,15.50
2019,09,23,15,31,15.60
2019,09,23,15,32,15.70
2019,09,23,15,33,15.70
2019,09,23,15,34,15.70
2019,09,23,15,35,15.70
2019,09,23,15,36,15.70
2019,09,23,15,37,15.80
2019,09,23,15,38,15.80
2019,09,23,15,39,15.80
2019,09,23,15,40,15.90
2019,09,23,15,41,15.90
2019,09,23,15,42,15.90
2019,09,23,15,43,16.00
2019,09,23,15,44,16.00
2019,09,23,15,45,16.10
2019,09,23,15,46,16.10
2019,09,23,15,47,16.10
2019,09,23,15,48,16.10
2019,09,23,15,49,16.10
2019,09,23,15,50,16.10
2019,09,23,15,51,15.90
2019,09,23,15,52,15.90
2019,09,23,15,53,15.90
2019,09,23,15,54,15.80
2019,09,23,15,55,15.80
2019,09,23,15,56,15.80
2019,09,23,15,57,15.80
2019,09,23,15,58,15.70
2019,09,23,15,59,15.70
2019,09,23,16,00,15.60
2019,09,23,16,01,15.60
2019,09,23,16,02,15.60
2019,09,23,16,03,15.60
2019,09,23,16,04,15.60
2019,09,23,16,05,15.60
2019,09,23,16,06,15.50
2019,09,23,16,07,15.40
2019,09,23,16,08,15.40
2019,09,23,16,09,15.40
2019,09,23,16,10,15.30
2019,09,23,16,11,15.30
2019,09,23,16,12,15.30
2019,09,23,16,13,15.30
2019,09,23,16,14,15.30
2019,09,23,16,15,15.30
2019,09,23,16,16,15.30
2019,09,23,16,17,15.30
2019,09,23,16,18,15.40
2019,09,23,16,19,15.40
2019,09,23,16,20,15.40
2019,09,23,16,21,15.40
2019,09,23,16,22,15.40
2019,09,23,16,23,15.40
2019,09,23,16,24,15.40
2019,09,23,16,25,15.40
2019,09,23,16,26,15.40
2019,09,23,16,27,15.40
2019,09,23,16,28,15.40
2019,09,23,16,29,15.40
2019,09,23,16,30,15.40
2019,09,23,16,31,15.40
2019,09,23,16,32,15.40
2019,09,23,16,33,15.40
2019,09,23,16,34,15.40
2019,09,23,16,35,15.40
2019,09,23,16,36,15.40
2019,09,23,16,37,15.50
2019,09,23,16,38,15.50
2019,09,23,16,39,15.60
2019,09,23,16,40,15.60
2019,09,23,16,41,15.60
2019,09,23,16,42,15.60
2019,09,23,16,43,15.60
2019,09,23,16,44,15.60
2019,09,23,16,45,15.60
2019,09,23,16,46,15.60
2019,09,23,16,47,15.60
2019,09,23,16,48,15.60
2019,09,23,16,49,15.60
2019,09,23,16,50,15.60
2019,09,23,16,51,15.60
2019,09,23,16,52,15.60
2019,09,23,16,53,15.60
2019,09,23,16,54,15.60
2019,09,23,16,55,15.60
2019,09,23,16,56,15.60
2019,09,23,16,57,15.50
2019,09,23,16,58,15.50
2019,09,23,16,59,15.50
2019,09,23,17,00,15.50
2019,09,23,17,01,15.50
2019,09,23,17,02,15.50
2019,09,23,17,03,15.50
2019,09,23,17,04,15.50
2019,09,23,17,05,15.50
2019,09,23,17,06,15.50
2019,09,23,17,07,15.50
2019,09,23,17,08,15.50
2019,09,23,17,09,15.50
2019,09,23,17,10,15.50
2019,09,23,17,11,15.40
2019,09,23,17,12,15.40
2019,09,23,17,13,15.40
2019,09,23,17,14,15.40
2019,09,23,17,15,15.40
2019,09,23,17,16,15.40
2019,09,23,17,17,15.40
2019,09,23,17,18,15.30
2019,09,23,17,19,15.30